Voltar ao catálogo

STARLINK-36275

AtivoComunicaçõesVLEO
NORAD 68702·PAYLOAD·🇺🇸 United States

Lançado Apr 14, 2026 de Cape Canaveral Space Force Station

Loading…

Próximas Passagens (próximas 24 horas)

TLE

AtualizadoSource: CelesTrak SupGP

Época: Sep 15, 2026, 04:31 UTC

1 68702C 26081D   26258.18868056 -.00058671  00000+0 -17333-2 0  2580
2 68702  53.1571 230.8362 0001273  92.3232 108.5009 15.34421891    17

Acompanhe STARLINK-36275 em tempo real com AllMySat

Download on the App Store